FW4226 Weather Reports


time (UTC)temp
C
wind
direction
speed
KPH
gust
KPH
rain 1hr
cm
rain 24hr
cm
rain mn
cm
humidity
%
barometer
mb
20260506050958 6 360 0.0 3.2 0.00 0.00 0.00 85 1013.5
20260506050500 6 4 0.0 3.2 0.00 0.00 0.00 85 1013.6
20260506044459 6 339 0.0 6.4 0.00 0.00 0.00 85 1013.5
20260506044000 6 29 0.0 6.4 0.00 0.00 0.00 85 1013.5
20260506042959 6 341 0.0 3.2 0.00 0.00 0.00 85 1013.6
20260506042458 6 353 0.0 3.2 0.00 0.00 0.00 85 1013.6
20260506041458 7 310 1.6 6.4 0.00 0.00 0.00 85 1013.6
20260506040958 7 353 1.6 6.4 0.00 0.00 0.00 85 1013.7
20260506040458 7 318 1.6 6.4 0.00 0.00 0.00 85 1013.7
20260506040003 7 358 1.6 4.8 0.00 0.00 0.00 84 1013.7
20260506035457 7 9 1.6 8.0 0.00 0.00 0.00 85 1013.6
20260506034959 7 26 1.6 8.0 0.00 0.00 0.00 84 1013.7
20260506034000 7 16 1.6 3.2 0.00 0.00 0.00 84 1013.7
20260506033458 7 22 1.6 6.4 0.00 0.00 0.00 84 1013.7
20260506032958 7 351 1.6 6.4 0.00 0.00 0.00 84 1013.6
20260506032459 7 351 1.6 6.4 0.00 0.00 0.00 84 1013.7
20260506031959 7 19 0.0 6.4 0.00 0.00 0.00 84 1013.7
20260506031457 7 66 0.0 4.8 0.00 0.00 0.00 84 1013.6
20260506030959 7 8 1.6 6.4 0.00 0.00 0.00 84 1013.7
20260506030458 7 9 1.6 6.4 0.00 0.00 0.00 84 1013.8
20260506030004 7 306 0.0 4.8 0.00 0.00 0.00 84 1013.9
20260506025457 7 356 1.6 4.8 0.00 0.00 0.00 84 1013.8
20260506024000 7 358 0.0 3.2 0.00 0.00 0.00 84 1013.8
20260506023459 7 313 0.0 1.6 0.00 0.00 0.00 84 1013.8
20260506022459 7 8 0.0 4.8 0.00 0.00 0.00 84 1013.8
20260506021959 7 27 1.6 3.2 0.00 0.00 0.00 84 1013.9
20260506021500 7 335 1.6 3.2 0.00 0.00 0.00 84 1014.0
20260506020457 7 18 0.0 0.0 0.00 0.00 0.00 85 1013.9
20260506020001 8 19 1.6 6.4 0.00 0.00 0.00 85 1013.8
20260506015456 8 10 1.6 6.4 0.00 0.00 0.00 85 1013.9
20260506014959 8 24 1.6 6.4 0.00 0.00 0.00 85 1013.8
20260506014456 8 344 1.6 6.4 0.00 0.00 0.00 85 1013.8
20260506013957 8 346 1.6 6.4 0.00 0.00 0.00 85 1013.9
20260506013457 8 30 1.6 6.4 0.00 0.00 0.00 85 1013.9
20260506013000 8 358 1.6 6.4 0.00 0.00 0.00 85 1014.0
20260506012457 8 326 1.6 6.4 0.00 0.00 0.00 84 1014.0
20260506011456 8 280 1.6 9.7 0.00 0.00 0.00 84 1014.0
20260506010957 8 358 0.0 4.8 0.00 0.00 0.00 84 1014.0
20260506010001 8 15 1.6 4.8 0.00 0.00 0.00 84 1013.9
20260506005457 8 325 0.0 4.8 0.00 0.00 0.00 84 1013.9
20260506004957 8 12 0.0 1.6 0.00 0.00 0.00 85 1013.9
20260506004457 8 12 0.0 1.6 0.00 0.00 0.00 85 1013.9
20260506003457 8 359 1.6 4.8 0.00 0.00 0.00 85 1013.9
20260506002957 8 4 0.0 9.7 0.00 0.00 0.00 85 1013.9
20260506002000 8 337 0.0 1.6 0.00 0.00 0.00 85 1013.9
20260506001457 8 322 0.0 3.2 0.00 0.00 0.00 85 1014.0
20260506000957 8 26 1.6 9.7 0.00 0.00 0.00 85 1014.0
20260506000457 8 354 1.6 9.7 0.00 0.00 0.00 85 1014.0
20260505235457 8 36 1.6 4.8 0.00 0.00 0.00 85 1014.0
20260505234959 8 32 1.6 8.0 0.00 0.00 0.00 85 1014.0
20260505234457 8 6 0.0 8.0 0.00 0.00 0.00 85 1014.1
20260505233957 8 359 0.0 1.6 0.00 0.00 0.00 85 1014.1
20260505233500 8 335 0.0 1.6 0.00 0.00 0.00 85 1014.2
20260505232502 8 328 0.0 3.2 0.00 0.00 0.00 84 1014.0
20260505232001 9 346 0.0 3.2 0.00 0.00 0.00 84 1014.0
20260505231501 9 339 0.0 1.6 0.00 0.00 0.00 84 1014.1
20260505231001 9 75 0.0 0.0 0.00 0.00 0.00 83 1014.1
20260505230501 9 75 0.0 3.2 0.00 0.00 0.00 83 1014.2
20260505230006 9 75 0.0 4.8 0.00 0.00 0.00 83 1014.2
20260505225501 9 289 1.6 8.0 0.00 0.00 0.00 83 1014.2
20260505224000 9 26 1.6 9.7 0.00 0.00 0.00 82 1014.2
20260505223501 9 354 1.6 9.7 0.00 0.00 0.00 81 1014.1
20260505223001 10 325 0.0 6.4 0.00 0.00 0.00 81 1014.2
20260505222501 10 24 1.6 4.8 0.00 0.00 0.00 80 1014.2
20260505222003 10 293 1.6 4.8 0.00 0.00 0.00 80 1014.3
20260505221501 10 235 1.6 6.4 0.00 0.00 0.00 80 1014.2
20260505221001 10 326 3.2 9.7 0.00 0.00 0.00 80 1014.2
20260505220501 10 324 3.2 11.3 0.00 0.00 0.00 79 1014.2
20260505215501 10 310 4.8 12.9 0.00 0.00 0.00 79 1014.0
20260505214501 10 67 3.2 11.3 0.00 0.00 0.00 79 1014.0
20260505214001 10 3 1.6 9.7 0.00 0.00 0.00 79 1013.9
20260505213500 10 278 1.6 8.0 0.00 0.00 0.00 79 1013.8
20260505213001 10 347 1.6 6.4 0.00 0.00 0.00 79 1013.7
20260505212501 10 39 1.6 8.0 0.00 0.00 0.00 78 1013.6
20260505212001 11 268 1.6 9.7 0.00 0.00 0.00 78 1013.7
20260505211501 11 29 1.6 9.7 0.00 0.00 0.00 78 1013.6
20260505210501 11 320 1.6 6.4 0.00 0.00 0.00 77 1013.6
20260505205503 11 244 1.6 8.0 0.00 0.00 0.00 76 1013.6
20260505205001 11 290 1.6 8.0 0.00 0.00 0.00 77 1013.6
20260505204500 11 50 3.2 8.0 0.00 0.00 0.00 77 1013.5
20260505203501 11 32 1.6 8.0 0.00 0.00 0.00 77 1013.4
20260505203002 11 303 1.6 8.0 0.00 0.00 0.00 77 1013.4
20260505202501 12 356 1.6 4.8 0.00 0.00 0.00 78 1013.4
20260505201501 12 348 1.6 9.7 0.00 0.00 0.00 77 1013.3
20260505201001 12 36 0.0 9.7 0.00 0.00 0.00 77 1013.2
20260505200500 12 38 1.6 3.2 0.00 0.00 0.00 78 1013.2
20260505200002 12 330 1.6 8.0 0.00 0.00 0.00 78 1013.2
20260505195502 12 36 1.6 8.0 0.00 0.00 0.00 78 1013.2
20260505195015 12 346 1.6 4.8 0.00 0.00 0.00 78 1013.2
20260505194504 12 358 1.6 8.0 0.00 0.00 0.00 78 1013.0
20260505194001 12 117 1.6 4.8 0.00 0.00 0.00 78 1013.0
20260505193001 12 332 0.0 8.0 0.00 0.00 0.00 78 1012.9
20260505192501 12 36 0.0 3.2 0.00 0.00 0.00 78 1012.8
20260505191501 12 13 1.6 6.4 0.00 0.00 0.00 77 1012.7
20260505191000 12 355 1.6 6.4 0.00 0.00 0.00 77 1012.8
20260505190501 12 41 1.6 9.7 0.00 0.00 0.00 76 1012.7
20260505190007 13 343 1.6 8.0 0.00 0.00 0.00 76 1012.7
20260505185501 13 353 1.6 6.4 0.00 0.00 0.00 75 1012.7
20260505185001 13 336 1.6 8.0 0.00 0.00 0.00 75 1012.7
20260505184500 13 12 1.6 8.0 0.00 0.00 0.00 74 1012.6
20260505183500 13 305 1.6 8.0 0.00 0.00 0.00 72 1012.5
20260505183000 13 10 1.6 8.0 0.00 0.00 0.00 72 1012.4
20260505182500 13 26 1.6 4.8 0.00 0.00 0.00 72 1012.4
20260505182001 13 341 1.6 6.4 0.00 0.00 0.00 72 1012.4
20260505181500 13 292 1.6 4.8 0.00 0.00 0.00 72 1012.4
20260505181001 13 330 1.6 9.7 0.00 0.00 0.00 72 1012.4
20260505180500 13 322 3.2 9.7 0.00 0.00 0.00 72 1012.4
20260505180008 13 308 1.6 8.0 0.00 0.00 0.00 72 1012.4
20260505175501 13 56 1.6 6.4 0.00 0.00 0.00 73 1012.5
20260505174501 13 5 0.0 4.8 0.00 0.00 0.00 74 1012.4
20260505174002 13 25 0.0 8.0 0.00 0.00 0.00 73 1012.5
20260505173500 13 343 0.0 1.6 0.00 0.00 0.00 74 1012.4
20260505172501 13 333 1.6 3.2 0.00 0.00 0.00 73 1012.5
20260505172002 13 302 1.6 8.0 0.00 0.00 0.00 73 1012.5
20260505171459 13 323 0.0 8.0 0.00 0.00 0.00 73 1012.6
20260505171007 13 329 0.0 3.2 0.00 0.00 0.00 74 1012.5
20260505170501 13 22 1.6 4.8 0.00 0.00 0.00 73 1012.6
20260505170006 13 306 0.0 4.8 0.00 0.00 0.00 74 1012.6
20260505165500 13 356 0.0 3.2 0.00 0.00 0.00 74 1012.7
20260505165000 13 342 1.6 3.2 0.00 0.00 0.00 74 1012.6
20260505163500 13 30 0.0 4.8 0.00 0.00 0.00 73 1012.8
20260505163000 13 22 0.0 4.8 0.00 0.00 0.00 73 1012.7
20260505162500 13 27 0.0 3.2 0.00 0.00 0.00 72 1012.6
20260505162000 13 15 0.0 1.6 0.00 0.00 0.00 73 1012.6
20260505161459 13 36 0.0 1.6 0.00 0.00 0.00 73 1012.6
20260505161000 13 36 0.0 4.8 0.00 0.00 0.00 73 1012.6
20260505160500 13 12 0.0 4.8 0.00 0.00 0.00 73 1012.6
20260505153000 14 353 1.6 4.8 0.00 0.00 0.00 71 1012.7
20260505152500 14 48 1.6 4.8 0.00 0.00 0.00 71 1012.7
20260505152000 14 339 1.6 4.8 0.00 0.00 0.00 71 1012.7
20260505151000 14 29 3.2 11.3 0.00 0.00 0.00 72 1012.7
20260505150459 14 347 1.6 11.3 0.00 0.00 0.00 73 1012.8
20260505140500 15 313 1.6 9.7 0.00 0.00 0.00 72 1013.0
20260505124959 15 36 1.6 8.0 0.00 0.00 0.00 66 1013.1
20260505124459 15 322 1.6 8.0 0.00 0.00 0.00 68 1013.1
20260505124000 15 11 1.6 8.0 0.00 0.00 0.00 67 1013.1
20260505123459 15 288 1.6 9.7 0.00 0.00 0.00 68 1013.0
20260505123000 15 43 3.2 9.7 0.00 0.00 0.00 68 1013.1
20260505122459 15 306 1.6 9.7 0.00 0.00 0.00 69 1013.1
20260505121459 15 12 3.2 8.0 0.00 0.00 0.00 71 1013.2
20260505120959 15 289 3.2 8.0 0.00 0.00 0.00 71 1013.2
20260505120459 15 311 3.2 8.0 0.00 0.00 0.00 71 1013.1
20260505120006 15 7 3.2 9.7 0.00 0.00 0.00 71 1013.2
20260505115500 15 339 3.2 6.4 0.00 0.00 0.00 73 1013.3
20260505115000 15 17 3.2 8.0 0.00 0.00 0.00 71 1013.2
20260505114459 15 332 3.2 8.0 0.00 0.00 0.00 70 1013.2
20260505113959 15 332 1.6 8.0 0.00 0.00 0.00 72 1013.1
20260505113458 15 12 3.2 6.4 0.00 0.00 0.00 70 1013.2
20260505113000 15 6 1.6 8.0 0.00 0.00 0.00 70 1013.2
20260505112459 15 326 1.6 4.8 0.00 0.00 0.00 70 1013.3
20260505112000 15 322 1.6 4.8 0.00 0.00 0.00 71 1013.3
20260505111459 15 278 1.6 6.4 0.00 0.00 0.00 68 1013.3
20260505111000 14 69 1.6 6.4 0.00 0.00 0.00 68 1013.5
20260505110459 14 359 1.6 6.4 0.00 0.00 0.00 67 1013.4
20260505102000 15 301 1.6 6.4 0.00 0.00 0.00 74 1013.7
20260505101459 14 29 1.6 8.0 0.00 0.00 0.00 76 1013.6
20260505100959 13 333 3.2 8.0 0.00 0.00 0.00 74 1013.7
20260505100005 14 348 1.6 8.0 0.00 0.00 0.00 74 1013.7
20260505095500 13 297 1.6 12.9 0.00 0.00 0.00 76 1013.7
20260505094959 13 23 1.6 12.9 0.00 0.00 0.00 76 1013.8
20260505094500 13 38 1.6 8.0 0.00 0.00 0.00 76 1013.9
20260505094000 13 359 3.2 8.0 0.00 0.00 0.00 76 1013.9
20260505093500 13 23 3.2 12.9 0.00 0.00 0.00 77 1014.0
20260505093000 13 59 3.2 12.9 0.00 0.00 0.00 76 1014.0
20260505092459 13 73 1.6 6.4 0.00 0.00 0.00 78 1013.9
20260505092000 12 30 1.6 4.8 0.00 0.00 0.00 79 1014.0
20260505091458 12 52 1.6 4.8 0.00 0.00 0.00 81 1014.0
20260505090500 12 285 1.6 8.0 0.00 0.00 0.00 81 1014.0
20260505090004 12 19 3.2 6.4 0.00 0.00 0.00 82 1014.0
20260505085500 12 27 1.6 6.4 0.00 0.00 0.00 82 1014.1
20260505084959 12 29 1.6 6.4 0.00 0.00 0.00 81 1014.1
20260505084000 12 289 1.6 3.2 0.00 0.00 0.00 83 1014.2
20260505083458 11 359 1.6 3.2 0.00 0.00 0.00 84 1014.1
20260505083001 11 340 1.6 4.8 0.00 0.00 0.00 85 1014.2
20260505082459 11 2 1.6 4.8 0.00 0.00 0.00 84 1014.3
20260505082000 11 14 1.6 6.4 0.00 0.00 0.00 85 1014.3
20260505081500 11 16 3.2 6.4 0.00 0.00 0.00 85 1014.3
20260505080959 11 13 3.2 11.3 0.00 0.00 0.00 87 1014.2
20260505080459 11 40 3.2 6.4 0.00 0.00 0.00 88 1014.2
20260505074958 10 18 1.6 3.2 0.00 0.00 0.00 90 1014.2
20260505073958 10 40 3.2 8.0 0.00 0.00 0.00 91 1014.2
20260505073457 10 358 1.6 9.7 0.00 0.00 0.00 91 1014.2
20260505072958 10 26 0.0 4.8 0.00 0.00 0.00 92 1014.3
20260505071458 9 336 0.0 3.2 0.00 0.00 0.00 92 1014.3
20260505070958 9 336 0.0 3.2 0.00 0.00 0.00 93 1014.3
20260505070002 9 19 0.0 6.4 0.00 0.00 0.00 93 1014.3
20260505065458 9 23 0.0 6.4 0.00 0.00 0.00 93 1014.3
20260505064958 9 14 0.0 3.2 0.00 0.00 0.00 93 1014.2
20260505064459 9 38 0.0 3.2 0.00 0.00 0.00 94 1014.2
20260505063958 9 54 0.0 1.6 0.00 0.00 0.00 94 1014.3
20260505063457 9 54 0.0 1.6 0.00 0.00 0.00 94 1014.2
20260505062958 9 53 0.0 1.6 0.00 0.00 0.00 94 1014.2
20260505062458 9 348 0.0 0.0 0.00 0.00 0.00 94 1014.2
20260505061958 9 348 0.0 0.0 0.00 0.00 0.00 94 1014.3
20260505061458 8 348 0.0 1.6 0.00 0.00 0.00 95 1014.4
20260505060959 8 348 0.0 1.6 0.00 0.00 0.00 95 1014.3
20260505060458 8 349 0.0 1.6 0.00 0.00 0.00 95 1014.4
20260505060005 8 349 0.0 1.6 0.00 0.00 0.00 95 1014.3
20260505054958 8 349 0.0 0.0 0.00 0.00 0.00 95 1014.4
20260505052958 7 349 0.0 0.0 0.00 0.00 0.00 95 1014.4
20260505052459 7 349 0.0 0.0 0.00 0.00 0.00 95 1014.4
20260505051958 7 349 0.0 0.0 0.00 0.00 0.00 95 1014.3